Location: Tel Aviv
(32.0670°N, 34.7670°E)
Time: 00:25:38
(UTC+03:00)

RS-15 - Visible Passes

Search period start: 01 April 2023 00:00
Search period end: 11 April 2023 00:00
Orbit: 1884 x 2161 km, 64.8° (Epoch: 30 March)

Date Brightness Start Highest point End Pass type
(mag) Time Alt. Az. Time Alt. Az. Time Alt. Az.
01 Apr 9.1 02:01:13 10° NW 02:06:11 30° NW 02:06:11 30° NW visible
01 Apr 9.2 23:13:19 10° NNW 23:22:54 27° NE 23:23:27 27° NE visible
02 Apr 8.9 01:25:01 10° NNW 01:31:10 38° NNW 01:31:10 38° NNW visible
02 Apr 9.4 22:37:34 10° N 22:46:00 21° NE 22:48:28 20° NE visible
03 Apr 8.7 00:48:55 10° NNW 00:56:12 44° NNW 00:56:12 44° NNW visible
03 Apr 9.7 03:03:36 10° NW 03:03:56 11° NW 03:03:56 11° NW visible
03 Apr 10.2 19:47:20 10° NNW 19:48:22 10° N 19:49:24 10° N visible
03 Apr 9.6 22:01:53 10° N 22:08:52 17° NNE 22:13:30 13° NE visible
04 Apr 8.6 00:12:56 10° NNW 00:21:14 47° N 00:21:14 47° N visible
04 Apr 9.5 02:26:27 10° NW 02:28:59 17° NW 02:28:59 17° NW visible
04 Apr 9.7 21:26:16 10° N 21:31:32 13° NNE 21:36:40 10° NE visible
04 Apr 8.7 23:37:02 10° NNW 23:46:19 43° NNE 23:46:19 43° NNE visible
05 Apr 9.2 01:49:46 10° NW 01:54:03 25° NW 01:54:03 25° NW visible
05 Apr 9.9 20:50:48 10° N 20:53:59 11° NNE 20:57:07 10° NNE visible
05 Apr 8.8 23:01:11 10° NNW 23:11:25 36° NE 23:11:25 36° NE visible
06 Apr 8.9 01:13:21 10° NW 01:19:09 34° NW 01:19:09 34° NW visible
06 Apr 9.0 22:25:23 10° NNW 22:35:06 28° NE 22:36:32 27° NE visible
07 Apr 8.7 00:37:07 10° NNW 00:44:16 44° NW 00:44:16 44° NW visible
07 Apr 9.3 21:49:38 10° N 21:58:13 22° NE 22:01:40 19° ENE visible
08 Apr 8.4 00:01:01 10° NNW 00:09:25 53° NNW 00:09:25 53° NNW visible
08 Apr 9.7 02:15:55 10° WNW 02:17:10 13° WNW 02:17:10 13° WNW visible
08 Apr 9.5 21:13:56 10° N 21:21:08 17° NNE 21:26:51 12° ENE visible
08 Apr 8.3 23:25:01 10° NNW 23:34:35 55° NNE 23:34:35 55° NNE visible
09 Apr 9.4 01:38:41 10° NW 01:42:20 20° WNW 01:42:20 20° WNW visible
09 Apr 9.7 20:38:18 10° N 20:43:49 14° NNE 20:49:13 10° NE visible
09 Apr 8.4 22:49:06 10° NNW 22:59:47 47° NE 22:59:47 47° NE visible
10 Apr 9.1 01:01:57 10° NW 01:07:31 30° WNW 01:07:31 30° WNW visible
10 Apr 9.8 20:02:49 10° N 20:06:18 11° NNE 20:09:45 10° NE visible
10 Apr 8.7 22:13:15 10° NNW 22:23:57 37° NE 22:24:59 36° ENE visible
